Location: ?? ????
(31.8890°N, 35.2167°E)
Time: 22:07:22
(UTC+00:00)

Daily predictions for brighter satellites

Satellite Brightness Start Highest point End
(mag) Time Altitude Azimuth Time Altitude Azimuth Time Altitude Azimuth
CZ-2C R/B 4.4 15:53:11 10° ENE 15:55:15 12° E 15:57:19 10° ESE
Cosmos 2151 Rocket 4.5 15:53:47 10° SSE 15:57:32 28° E 16:01:20 10° NNE
Meteor 1-21 4.2 15:53:09 10° N 15:58:43 68° E 16:04:17 10° SSE
Cosmos 1975 Rocket 2.9 16:02:46 10° N 16:07:04 74° E 16:11:23 10° S
H-2A R/B 2.9 16:05:15 10° SE 16:09:20 26° ENE 16:13:29 10° NNE
Cosmos 1072 Rocket 4.5 16:08:02 10° S 16:14:12 72° E 16:20:31 10° N
COSMO-SKYMED 1 4.4 16:12:35 10° N 16:16:32 35° WNW 16:20:29 10° SW
Cosmos 1844 Rocket 2.7 16:11:51 10° SSW 16:17:24 88° WNW 16:23:00 10° NNE
NOSS 3-4 (A) 3.5 16:14:52 10° S 16:20:29 51° ESE 16:26:17 10° NE
NOSS 3-4 (C) 3.5 16:15:00 10° S 16:20:35 50° ESE 16:26:23 10° NE
Shenzhou-11 Module 3.7 16:19:08 10° WNW 16:20:41 17° NNW 16:22:13 10° NNE
Cosmos 2278 Rocket 3.6 16:18:37 10° SE 16:21:36 15° E 16:21:43 15° E
Cosmos 2034 Rocket 4.2 16:15:36 10° SSE 16:21:43 52° E 16:27:50 10° NNE
Cosmos 1939 Rocket 3.7 16:17:54 10° S 16:21:56 55° W 16:26:00 10° NNW
Cosmos 1844 3.7 16:18:53 10° SSW 16:24:36 84° ESE 16:30:16 10° NNE
Meteor 1-12 Rocket 4.4 16:21:10 10° S 16:27:06 85° W 16:32:56 10° N
USA 116 4.0 16:23:17 10° N 16:27:12 81° WNW 16:31:38 10° SSW
Cosmos 1707 2.6 16:30:17 10° N 16:34:07 85° E 16:37:56 10° S
CZ-2C R/B 0.9 16:31:01 10° WNW 16:34:50 89° NNE 16:36:37 28° ESE
Cosmos 1300 Rocket 4.1 16:34:09 10° SSW 16:38:29 62° W 16:42:53 10° N
Okean 1 Rocket 3.5 16:37:25 10° SSE 16:41:34 39° E 16:45:45 10° NNE
ATLAS 2AS CENTAUR R/B 3.0 16:34:48 10° SSW 16:42:33 71° ESE 16:50:29 10° NE
CENTAUR R/B 3.8 16:35:13 10° NNW 16:42:49 37° NE 16:47:32 22° ESE
CSL-04 Debris 4.1 16:38:47 10° SSE 16:44:09 79° ENE 16:49:33 10° N
CSL-04 Rocket 3.6 16:40:47 10° SSE 16:46:11 78° ENE 16:51:40 10° N
Cosmos 1634 Rocket 4.5 16:44:08 10° SSE 16:49:38 35° E 16:55:09 10° NNE
OE (NEXTSAT) 4.4 16:47:44 10° WSW 16:51:11 72° NW 16:52:35 33° NE
YAOGAN 1 3.5 16:49:15 10° S 16:53:24 49° W 16:57:37 10° NNW
Cosmos 1766 3.4 16:53:37 38° SE 16:54:29 45° E 16:58:15 10° NNE
Milstar 3 Cent rocket 2.6 16:53:28 10° WSW 17:01:46 59° S 17:03:49 37° ESE
Cosmos 1025 Rocket 3.4 16:57:31 10° NNW 17:01:53 67° W 17:06:14 10° S
Gbstr 26 Del rocket 4.4 17:01:06 10° SSW 17:07:11 47° SE 17:10:04 32° ENE
GOES 2 Rocket 3.1 17:03:18 10° W 17:07:27 52° S 17:07:57 49° SSE
Cosmos 2285 Rocket 4.4 17:02:15 10° SSW 17:08:28 63° WNW 17:14:45 10° N
CZ-2C R/B 3.9 17:03:59 10° S 17:09:04 54° W 17:14:28 10° NNW
Cosmos 1536 Rocket 3.7 17:06:58 10° N 17:11:25 73° W 17:15:14 14° S
USA 238 DEB 3.8 17:04:26 10° NNW 17:11:48 75° ENE 17:15:45 31° SE
USA 238 3.8 17:04:32 10° NNW 17:11:55 74° ENE 17:15:48 32° SE
CZ-4 R/B 4.0 17:08:55 10° SSW 17:12:14 22° W 17:15:32 10° NW
Cosmos 2026 Rocket 4.3 17:11:29 10° N 17:17:32 44° E 17:17:41 43° E
Cosmos 1092 Rocket 3.9 17:11:30 10° N 17:17:36 60° E 17:19:35 41° SE
ARGOS 3.3 17:19:55 16° S 17:24:13 72° WSW 17:29:35 10° NNW
Cosmos 1674 3.2 17:22:14 10° NNW 17:25:26 56° NW 17:25:26 56° NW
OAO 1 4.4 17:23:45 10° W 17:29:14 80° NNW 17:29:53 68° NE
MOS 1 4.2 17:30:21 63° ENE 17:30:24 63° ENE 17:36:02 10° N
CZ-2C R/B 3.0 17:30:19 10° N 17:35:53 69° WNW 17:41:27 10° SSW
NOSS 3-2 (A) 4.3 17:28:32 10° NW 17:36:29 72° WSW 17:41:26 29° SSE
Cosmos 2142 Rocket 4.4 17:40:01 69° ENE 17:40:01 69° ENE 17:45:55 10° N
DMSP B5D2-2 4.5 17:41:03 10° N 17:46:15 62° WNW 17:51:26 10° SSW
Ariane Rocket 3.2 17:47:53 68° WNW 17:47:53 68° WNW 17:52:31 10° NNW
H-2A R/B 3.9 17:44:28 10° SSW 17:48:36 27° W 17:52:51 10° NW
Cosmos 494 Rocket 4.5 17:44:16 10° NNW 17:49:24 57° WSW 17:49:49 55° WSW
USA 234 3.1 17:50:46 77° E 17:51:09 81° SE 17:57:41 10° SW
Cosmos 2278 Rocket 2.9 17:59:32 10° SW 18:10:00 13° N 18:10:39 10° N
NOSS 3-2 (C) 4.4 18:06:47 10° NW 18:14:43 65° WSW 18:16:08 57° SSW
CENTAUR R/B 3.7 18:25:39 10° NW 18:33:51 53° WSW 18:34:46 51° SW
ATLAS 3B R/B 4.0 18:38:59 10° NNW 18:42:35 33° NNW 18:42:35 33° NNW
